Total_Precipitation_Accumulation
1.89 1.43 0.89 0.48 0.39 0.35 0.29 0.36 0.50 0.55 0.54 0.56 0.59 0.46 0.43 0.37 0.33 0.34 0.34 0.37 0.45 0.57 0.71 0.83 0.97 1.12 1.24 1.22 1.26 1.37 1.43 1.52 1.62 1.62 1.49 1.37 1.27 1.21 1.14 1.01 0.96 0.88 0.84 0.88
1.61 1.06 0.48 0.32 0.34 0.33 0.30 0.33 0.43 0.48 0.48 0.55 0.56 0.47 0.42 0.42 0.38 0.35 0.33 0.34 0.44 0.56 0.65 0.77 0.90 1.02 1.17 1.25 1.29 1.42 1.49 1.52 1.54 1.59 1.64 1.58 1.60 1.51 1.42 1.33 1.24 1.13 1.08 1.07
1.24 0.71 0.40 0.41 0.45 0.37 0.29 0.29 0.35 0.41 0.45 0.55 0.56 0.55 0.43 0.40 0.40 0.33 0.30 0.34 0.42 0.58 0.65 0.73 0.85 0.89 0.98 1.16 1.36 1.45 1.49 1.53 1.55 1.76 2.11 2.06 1.94 1.83 1.71 1.57 1.46 1.35 1.30 1.30
1.10 0.63 0.47 0.47 0.42 0.36 0.32 0.22 0.28 0.36 0.51 0.58 0.59 0.75 0.48 0.46 0.45 0.37 0.33 0.34 0.43 0.53 0.57 0.64 0.81 0.85 0.88 1.00 1.25 1.53 1.60 1.68 1.79 1.97 2.18 2.22 1.99 1.78 1.69 1.67 1.65 1.59 1.46 1.43
1.05 0.72 0.59 0.53 0.40 0.35 0.34 0.24 0.30 0.37 0.46 0.54 0.47 0.60 0.55 0.47 0.48 0.47 0.44 0.45 0.50 0.55 0.59 0.63 0.80 0.89 0.89 0.94 1.11 1.37 1.59 1.66 1.83 1.98 2.08 2.23 2.03 1.77 1.73 1.75 1.69 1.67 1.58 1.46
0.73 0.62 0.66 0.55 0.38 0.37 0.37 0.35 0.39 0.47 0.55 0.57 0.40 0.49 0.57 0.53 0.54 0.55 0.55 0.60 0.64 0.62 0.64 0.68 0.78 0.81 0.81 0.85 0.96 1.13 1.31 1.40 1.52 1.68 1.87 2.03 2.04 1.91 1.79 1.70 1.63 1.58 1.56 1.51
0.87 0.71 0.59 0.51 0.49 0.43 0.43 0.54 0.72 0.82 0.71 0.50 0.34 0.39 0.56 0.51 0.51 0.55 0.61 0.66 0.67 0.65 0.62 0.66 0.71 0.70 0.68 0.72 0.83 0.94 1.03 1.12 1.24 1.39 1.58 1.76 1.88 1.89 1.84 1.76 1.65 1.53 1.44 1.38
0.85 0.95 0.57 0.46 0.46 0.44 0.37 0.43 0.57 0.59 0.41 0.31 0.23 0.35 0.52 0.52 0.55 0.55 0.60 0.60 0.59 0.57 0.59 0.68 0.75 0.72 0.70 0.71 0.73 0.75 0.83 0.98 1.07 1.15 1.32 1.46 1.53 1.56 1.55 1.58 1.57 1.49 1.40 1.34
0.46 0.60 0.39 0.29 0.25 0.28 0.34 0.30 0.26 0.43 0.31 0.23 0.24 0.32 0.46 0.50 0.51 0.52 0.55 0.51 0.48 0.47 0.55 0.65 0.68 0.66 0.64 0.65 0.64 0.65 0.71 0.81 0.86 0.89 1.01 1.06 1.12 1.16 1.21 1.25 1.27 1.27 1.28 1.32
0.24 0.38 0.32 0.24 0.23 0.21 0.20 0.17 0.25 0.48 0.42 0.28 0.21 0.24 0.45 0.48 0.48 0.46 0.45 0.42 0.40 0.44 0.51 0.53 0.51 0.50 0.52 0.57 0.60 0.60 0.62 0.67 0.67 0.67 0.73 0.76 0.78 0.83 0.91 0.99 0.98 0.96 1.00 1.06
0.14 0.25 0.28 0.23 0.26 0.19 0.14 0.16 0.22 0.32 0.28 0.24 0.18 0.27 0.32 0.38 0.40 0.38 0.36 0.36 0.36 0.41 0.41 0.40 0.38 0.37 0.41 0.44 0.45 0.44 0.48 0.54 0.55 0.50 0.50 0.53 0.56 0.60 0.68 0.79 0.87 0.89 0.88 0.86
0.10 0.17 0.22 0.17 0.10 0.06 0.08 0.11 0.19 0.32 0.23 0.18 0.16 0.23 0.24 0.27 0.28 0.27 0.27 0.29 0.30 0.32 0.32 0.33 0.32 0.32 0.32 0.34 0.34 0.37 0.41 0.43 0.43 0.39 0.37 0.39 0.41 0.42 0.48 0.57 0.65 0.70 0.75 0.77
0.10 0.13 0.22 0.23 0.16 0.10 0.11 0.11 0.14 0.28 0.43 0.27 0.21 0.24 0.24 0.23 0.22 0.22 0.24 0.26 0.25 0.24 0.22 0.22 0.21 0.21 0.22 0.25 0.29 0.32 0.30 0.28 0.28 0.29 0.29 0.30 0.31 0.30 0.32 0.36 0.41 0.45 0.51 0.60
0.15 0.10 0.13 0.16 0.13 0.17 0.19 0.11 0.14 0.47 0.58 0.20 0.10 0.16 0.18 0.17 0.18 0.21 0.24 0.22 0.19 0.17 0.15 0.12 0.10 0.10 0.11 0.17 0.20 0.21 0.19 0.20 0.22 0.23 0.23 0.24 0.24 0.25 0.26 0.26 0.27 0.29 0.30 0.34
0.12 0.11 0.06 0.06 0.09 0.21 0.21 0.14 0.16 0.30 0.22 0.18 0.08 0.09 0.11 0.11 0.13 0.17 0.18 0.15 0.11 0.09 0.07 0.06 0.06 0.06 0.08 0.11 0.14 0.16 0.17 0.20 0.22 0.21 0.19 0.18 0.18 0.20 0.21 0.20 0.18 0.16 0.15 0.15
0.11 0.11 0.08 0.07 0.07 0.12 0.15 0.09 0.08 0.09 0.06 0.06 0.05 0.06 0.06 0.09 0.14 0.17 0.15 0.11 0.08 0.06 0.05 0.03 0.03 0.03 0.04 0.08 0.15 0.20 0.24 0.24 0.22 0.19 0.17 0.16 0.17 0.18 0.19 0.16 0.13 0.11 0.11 0.11
0.06 0.09 0.14 0.08 0.03 0.10 0.13 0.08 0.06 0.05 0.03 0.04 0.06 0.05 0.07 0.14 0.20 0.22 0.15 0.09 0.06 0.04 0.03 0.02 0.01 0.02 0.04 0.11 0.24 0.37 0.43 0.39 0.31 0.27 0.22 0.20 0.20 0.20 0.20 0.20 0.19 0.18 0.17 0.18
0.04 0.09 0.18 0.11 0.08 0.18 0.12 0.06 0.03 0.02 0.02 0.04 0.05 0.05 0.08 0.11 0.15 0.15 0.09 0.04 0.02 0.02 0.02 0.01 0.01 0.03 0.06 0.14 0.27 0.37 0.45 0.48 0.43 0.39 0.37 0.33 0.34 0.36 0.39 0.40 0.39 0.38 0.37 0.36
0.03 0.10 0.21 0.15 0.12 0.07 0.03 0.02 0.03 0.03 0.03 0.03 0.04 0.03 0.03 0.05 0.09 0.10 0.06 0.03 0.02 0.01 0.01 0.01 0.01 0.03 0.07 0.14 0.22 0.32 0.42 0.47 0.51 0.57 0.61 0.60 0.59 0.62 0.66 0.71 0.72 0.68 0.65 0.63
0.03 0.09 0.21 0.17 0.12 0.03 0.02 0.01 0.01 0.03 0.05 0.02 0.02 0.02 0.01 0.02 0.07 0.08 0.07 0.05 0.04 0.03 0.03 0.03 0.03 0.05 0.10 0.17 0.28 0.45 0.56 0.62 0.65 0.71 0.76 0.73 0.72 0.73 0.73 0.74 0.74 0.70 0.64 0.61
0.07 0.12 0.19 0.16 0.12 0.02 0.01 0.01 0.01 0.03 0.04 0.01 0.02 0.03 0.03 0.04 0.05 0.04 0.06 0.08 0.09 0.09 0.10 0.12 0.14 0.18 0.25 0.34 0.48 0.70 0.82 0.77 0.71 0.70 0.66 0.60 0.56 0.51 0.48 0.46 0.43 0.41 0.37 0.34
0.02 0.05 0.06 0.06 0.08 0.03 0.01 0.01 0.02 0.02 0.01 0.01 0.02 0.03 0.04 0.03 0.03 0.03 0.04 0.07 0.11 0.15 0.15 0.18 0.24 0.30 0.36 0.40 0.46 0.56 0.59 0.54 0.48 0.43 0.36 0.30 0.28 0.25 0.23 0.21 0.20 0.18 0.16 0.14
0.02 0.03 0.03 0.03 0.04 0.02 0.01 0.01 0.01 0.01 0.01 0.01 0.03 0.04 0.04 0.03 0.02 0.03 0.03 0.04 0.06 0.08 0.09 0.10 0.11 0.12 0.15 0.17 0.19 0.20 0.19 0.16 0.14 0.12 0.10 0.08 0.08 0.08 0.07 0.07 0.06 0.05 0.04 0.03
0.03 0.02 0.03 0.02 0.02 0.02 0.01 0.01 0.01 0.01 0.01 0.01 0.03 0.03 0.03 0.04 0.03 0.03 0.03 0.03 0.04 0.04 0.04 0.04 0.04 0.04 0.04 0.04 0.05 0.04 0.04 0.04 0.03 0.03 0.03 0.03 0.03 0.03 0.04 0.04 0.04 0.04 0.04 0.04
0.04 0.03 0.04 0.03 0.02 0.02 0.01 0.01 0.01 0.01 0.01 0.01 0.01 0.01 0.02 0.02 0.03 0.04 0.04 0.04 0.04 0.04 0.04 0.04 0.04 0.04 0.04 0.04 0.04 0.04 0.04 0.04 0.04 0.04 0.05 0.05 0.05 0.05 0.05 0.06 0.07 0.08 0.07 0.08
0.02 0.03 0.05 0.04 0.02 0.01 0.01 0.00 0.01 0.01 0.01 0.01 0.01 0.01 0.02 0.02 0.02 0.03 0.03 0.03 0.03 0.04 0.04 0.05 0.05 0.05 0.05 0.05 0.06 0.06 0.06 0.07 0.07 0.07 0.07 0.09 0.10 0.10 0.10 0.11 0.11 0.13 0.13 0.14